Ironwood, MI

1:48 PM CDT on May 29, 2017 (GMT -0500)
Gogebic-Iron County

Weather History for KIWD - October, 2010

Change the Weather History Date:

Wednesday, October 27, 2010

  Actual Average Record
Temperature  
Mean Temperature 37 °F -  
Max Temperature 39 °F 46 °F 68 °F (1998)
Min Temperature 35 °F 33 °F 21 °F (2003)
Degree Days  
Heating Degree Days 28    
Moisture  
Dew Point 34 °F    
Average Humidity 87    
Maximum Humidity 93    
Minimum Humidity 75    
Precipitation  
Precipitation 0.13 in - - ()
Sea Level Pressure  
Sea Level Pressure 29.14 in    
Wind  
Wind Speed 22 mph (WSW)    
Max Wind Speed 32 mph    
Max Gust Speed 48 mph    
Visibility 9 miles    
Events      
Averages and records for this station are not official NWS values.
T = Trace of Precipitation, MM = Missing Value Source: NWS Daily Summary

Daily Weather History Graph

Daily Weather History Graph

Search for Another Location

Airport or City:

Trip Planner

Search our weather history database for the weather conditions in past years. The results will help you decide how hot, cold, wet, or windy it might be!

Date:

Astronomy

Oct. 27, 2010 Rise Set
Actual Time 7:34 AM CDT 5:53 PM CDT
Civil Twilight 7:03 AM CDT 6:24 PM CDT
Nautical Twilight 6:28 AM CDT 6:59 PM CDT
Astronomical Twilight 5:53 AM CDT 7:34 PM CDT
Moon 9:03 PM CDT (10/27) 12:22 PM CDT (10/27)
Length of Visible Light 11h 20m
Length of Day
10h 18m
Waning Gibbous, 79% of the Moon is Illuminated
Oct 27
Waning Gibbous
Oct 30
Last Quarter
Nov 5
New
Nov 13
First Quarter
Nov 21
Full

Hourly Weather History & Observations

Time (CDT) Temp. Windchill Dew Point Humidity Pressure Visibility Wind Dir Wind Speed Gust Speed Precip Events Conditions
12:15 AM - - - N/A% 28.67 in 10.0 mi SW 32.2 mph 48.3 mph N/A   Overcast
9:35 AM 35.6 °F 24.2 °F - N/A% 28.87 in - SW 21.9 mph 33.4 mph N/A   Unknown
9:55 AM 35.6 °F 23.7 °F 30.2 °F 81% 28.88 in 5.0 mi SW 24.2 mph 35.7 mph N/A   Overcast
10:15 AM 35.6 °F 23.2 °F 30.2 °F 81% 28.90 in 5.0 mi SW 26.5 mph 35.7 mph N/A   Overcast
10:35 AM 35.6 °F 24.2 °F 30.2 °F 81% 28.91 in 9.0 mi SW 21.9 mph 36.8 mph N/A   Mostly Cloudy
10:55 AM 35.6 °F 24.5 °F 30.2 °F 81% 28.92 in 10.0 mi SW 20.7 mph 32.2 mph N/A   Overcast
11:15 AM 35.6 °F 23.7 °F 30.2 °F 81% 28.93 in 7.0 mi SW 24.2 mph 33.4 mph N/A   Overcast
11:35 AM 35.6 °F 24.2 °F 32.0 °F 87% 28.94 in 7.0 mi SW 21.9 mph 32.2 mph N/A   Mostly Cloudy
11:55 AM 35.6 °F 24.0 °F 32.0 °F 87% 28.96 in 5.0 mi SW 23.0 mph 32.2 mph N/A   Overcast
12:15 PM 35.6 °F 24.2 °F 32.0 °F 87% 28.97 in 10.0 mi SW 21.9 mph 31.1 mph N/A   Overcast
12:35 PM 35.6 °F 24.5 °F 33.8 °F 93% 28.98 in 10.0 mi SW 20.7 mph 31.1 mph N/A   Overcast
12:55 PM 35.6 °F 24.5 °F 32.0 °F 87% 28.99 in 10.0 mi SW 20.7 mph 28.8 mph N/A   Overcast
1:15 PM 35.6 °F 24.2 °F 33.8 °F 93% 28.99 in 10.0 mi SW 21.9 mph 27.6 mph N/A   Mostly Cloudy
1:35 PM 35.6 °F 25.5 °F 32.0 °F 87% 29.01 in 8.0 mi SW 17.3 mph 32.2 mph N/A   Overcast
1:55 PM 35.6 °F 23.7 °F 32.0 °F 87% 29.02 in 7.0 mi SW 24.2 mph 31.1 mph N/A   Overcast
2:15 PM 35.6 °F 23.4 °F 33.8 °F 93% 29.03 in 10.0 mi SW 25.3 mph 28.8 mph 0.01 in   Overcast
2:35 PM 35.6 °F 24.5 °F 33.8 °F 93% 29.04 in 10.0 mi SW 20.7 mph 29.9 mph 0.02 in   Overcast
2:55 PM 35.6 °F 25.2 °F 33.8 °F 93% 29.05 in 10.0 mi WSW 18.4 mph 29.9 mph 0.02 in   Mostly Cloudy
3:15 PM 35.6 °F 24.5 °F 33.8 °F 93% 29.07 in 10.0 mi SW 20.7 mph 28.8 mph N/A   Mostly Cloudy
3:35 PM 37.4 °F 26.9 °F 33.8 °F 87% 29.08 in 10.0 mi SW 20.7 mph 28.8 mph N/A   Overcast
3:55 PM 37.4 °F 27.2 °F 33.8 °F 87% 29.10 in 10.0 mi SW 19.6 mph 26.5 mph N/A   Overcast
4:15 PM 37.4 °F 26.9 °F 33.8 °F 87% 29.12 in 10.0 mi WSW 20.7 mph 28.8 mph N/A   Overcast
4:35 PM 37.4 °F 28.2 °F 33.8 °F 87% 29.13 in 10.0 mi WSW 16.1 mph 27.6 mph 0.01 in   Overcast
4:55 PM 37.4 °F 28.2 °F 35.6 °F 93% 29.14 in 10.0 mi SW 16.1 mph 24.2 mph 0.01 in   Overcast
5:35 PM 37.4 °F 28.5 °F 33.8 °F 87% 29.17 in 7.0 mi WSW 15.0 mph 23.0 mph 0.01 in   Overcast
5:55 PM 37.4 °F 27.8 °F 35.6 °F 93% 29.18 in 9.0 mi WSW 17.3 mph 26.5 mph 0.03 in   Overcast
6:15 PM 37.4 °F 27.8 °F 35.6 °F 93% 29.20 in 10.0 mi WSW 17.3 mph 25.3 mph N/A   Overcast
6:35 PM 37.4 °F 26.9 °F 35.6 °F 93% 29.22 in 10.0 mi WSW 20.7 mph 24.2 mph 0.02 in   Overcast
6:55 PM 37.4 °F 27.2 °F 35.6 °F 93% 29.23 in 10.0 mi West 19.6 mph 27.6 mph 0.05 in   Overcast
7:15 PM 37.4 °F 28.2 °F 35.6 °F 93% 29.25 in 10.0 mi WSW 16.1 mph 24.2 mph 0.01 in   Overcast
7:35 PM 39.2 °F 30.2 °F 35.6 °F 87% 29.26 in 10.0 mi West 17.3 mph 27.6 mph 0.02 in   Overcast
7:55 PM 39.2 °F 30.5 °F 37.4 °F 93% 29.28 in 10.0 mi West 16.1 mph 25.3 mph 0.02 in   Overcast
8:15 PM 39.2 °F 29.6 °F 37.4 °F 93% 29.29 in 10.0 mi WSW 19.6 mph 27.6 mph N/A   Overcast
8:35 PM 39.2 °F 30.2 °F 37.4 °F 93% 29.31 in 9.0 mi West 17.3 mph 25.3 mph N/A   Overcast
8:55 PM 39.2 °F 30.2 °F 37.4 °F 93% 29.32 in 10.0 mi West 17.3 mph 21.9 mph N/A   Overcast
9:15 PM 39.2 °F 29.6 °F 35.6 °F 87% 29.34 in 10.0 mi West 19.6 mph 24.2 mph N/A   Overcast
9:35 PM 39.2 °F 29.6 °F 35.6 °F 87% 29.36 in 10.0 mi West 19.6 mph 24.2 mph N/A   Overcast
9:55 PM 39.2 °F 30.2 °F 33.8 °F 81% 29.38 in 10.0 mi West 17.3 mph 26.5 mph N/A   Overcast
10:15 PM 39.2 °F 29.8 °F 33.8 °F 81% 29.40 in 10.0 mi West 18.4 mph 26.5 mph N/A   Overcast
10:35 PM 39.2 °F 30.2 °F 33.8 °F 81% 29.41 in 10.0 mi West 17.3 mph 26.5 mph N/A   Overcast
10:55 PM 39.2 °F 30.5 °F 33.8 °F 81% 29.44 in 10.0 mi West 16.1 mph 21.9 mph N/A   Overcast
11:15 PM 39.2 °F 29.8 °F 33.8 °F 81% 29.45 in 10.0 mi West 18.4 mph 26.5 mph N/A   Overcast
11:35 PM 39.2 °F 30.2 °F 33.8 °F 81% 29.47 in 10.0 mi West 17.3 mph 27.6 mph N/A   Overcast
11:55 PM 39.2 °F 30.2 °F 32.0 °F 75% 29.48 in 10.0 mi West 17.3 mph 26.5 mph N/A   Overcast